sat.trackr.live / text

‹ back to catalog

STARLINK-34716

NORAD 65352 · 2025-190B

PAYLOAD ACTIVE UNKNOWN

§ Identity

Operator
Country
US
Launch date
2025-08-28
Launch site
AFETR
Launch vehicle
Mass (kg)
RCS (m²)

Purposes: comms

External: N2YO · Heavens-Above · Gunter

§ Orbital elements

Epoch: 2026-09-20T12:48:42.355584Z

Period
93.85 min
Inclination
53.1576°
Eccentricity
0.0001027
Mean motion
15.34404565 rev/d
Perigee alt
462.0 km
Apogee alt
463.4 km
Semi-major
6,840.8 km
B*
4.3513e-4
RAAN
341.2481°
Arg perigee
85.7615°
Mean anomaly
274.3505°
Rev number
5,961

§ Raw data

STARLINK-347161 65352U 25190B   26263.53382356  .00014356  00000+0  43513-3 0  99992 65352  53.1576 341.2481 0001027  85.7615 274.3505 15.34404565 59619

JSON: /api/v1/satellites/65352 · /tle

For live sub-satellite position, see the globe view (requires WebGL).

§ Visibility from observer

Set your observer location to see the next 7 days of passes ≥ 10°. The values pass through the URL so the page stays shareable.

No JS? Fill the form by hand. The geolocation button needs JavaScript.